• în România
  • Lista ţărilor
  • Pe 7 zile
  • Temperatura apei
  • Hartă satelitară
  • Meteo pe hartă
  • Widget-uri
  • user-avatar
    Intrare

    Meteo pe oră la Mitryaevo

    Astăzi, 19 Octombrie, Vineri

    Timp Temperatura Precipitaţii Vânt Presiune Umiditate
    00:00 +3°C° 0 mm 3 m/s 752 mmHg 87%
    01:00 +3°C° 0 mm 3 m/s 752 mmHg 86%
    02:00 +3°C° 0 mm 3 m/s 751 mmHg 87%
    03:00 +3°C° 0 mm 3 m/s 751 mmHg 89%
    04:00 +2°C° 0 mm 3 m/s 751 mmHg 91%
    05:00 +3°C° 0 mm 3 m/s 750 mmHg 92%
    06:00 +3°C° 0 mm 3 m/s 750 mmHg 93%
    07:00 +3°C° 0 mm 3 m/s 750 mmHg 94%
    08:00 +4°C° 0 mm 3 m/s 750 mmHg 93%
    09:00 +4°C° 0 mm 3 m/s 750 mmHg 92%
    10:00 +5°C° 0 mm 3 m/s 750 mmHg 92%
    11:00 +7°C° 0 mm 3 m/s 750 mmHg 91%
    12:00 +7°C° 0 mm 3 m/s 750 mmHg 90%
    13:00 +8°C° 0 mm 3 m/s 750 mmHg 89%
    14:00 +8°C° 0 mm 3 m/s 749 mmHg 89%
    15:00 +8°C° 0 mm 3 m/s 749 mmHg 89%
    16:00 +8°C° 0 mm 3 m/s 749 mmHg 89%
    17:00 +8°C° 0 mm 3 m/s 749 mmHg 90%
    18:00 +8°C° 0 mm 3 m/s 749 mmHg 91%
    19:00 +8°C° 0 mm 3 m/s 748 mmHg 92%
    20:00 +8°C° 0 mm 3 m/s 748 mmHg 93%
    21:00 +8°C° 0 mm 3 m/s 748 mmHg 93%
    22:00 +7°C° 0 mm 3 m/s 748 mmHg 94%
    23:00 +6°C° 0 mm 4 m/s 748 mmHg 94%

    Mâine, 20 Octombrie, Sâmbătă

    Timp Temperatura Precipitaţii Vânt Presiune Umiditate
    00:00 +6°C° 0 mm 4 m/s 747 mmHg 94%
    01:00 +6°C° 0 mm 4 m/s 747 mmHg 94%
    02:00 +7°C° 0.2 mm 4 m/s 747 mmHg 95%
    03:00 +7°C° 0.2 mm 4 m/s 747 mmHg 96%
    04:00 +8°C° 0.2 mm 4 m/s 747 mmHg 96%
    05:00 +8°C° 0.6 mm 4 m/s 746 mmHg 96%
    06:00 +8°C° 0.6 mm 4 m/s 746 mmHg 96%
    07:00 +8°C° 0.6 mm 4 m/s 746 mmHg 96%
    08:00 +8°C° 0.4 mm 4 m/s 746 mmHg 96%
    09:00 +9°C° 0.4 mm 3 m/s 746 mmHg 95%
    10:00 +9°C° 0.4 mm 3 m/s 746 mmHg 94%
    11:00 +10°C° 0.5 mm 3 m/s 746 mmHg 90%
    12:00 +10°C° 0.5 mm 3 m/s 746 mmHg 85%
    13:00 +10°C° 0.5 mm 3 m/s 746 mmHg 80%
    14:00 +10°C° 0.1 mm 3 m/s 746 mmHg 79%
    15:00 +9°C° 0.1 mm 3 m/s 747 mmHg 77%
    16:00 +9°C° 0.1 mm 3 m/s 747 mmHg 76%
    17:00 +8°C° 0 mm 3 m/s 747 mmHg 78%
    18:00 +7°C° 0 mm 3 m/s 748 mmHg 81%
    19:00 +7°C° 0 mm 2 m/s 748 mmHg 83%
    20:00 +7°C° 0 mm 2 m/s 748 mmHg 83%
    21:00 +6°C° 0 mm 2 m/s 748 mmHg 83%
    22:00 +6°C° 0 mm 2 m/s 749 mmHg 83%
    23:00 +6°C° 0 mm 2 m/s 749 mmHg 84%

    Poimâine, 21 Octombrie, Duminică

    Timp Temperatura Precipitaţii Vânt Presiune Umiditate
    00:00 +4°C° 0 mm 3 m/s 749 mmHg 86%
    01:00 +4°C° 0 mm 3 m/s 749 mmHg 87%
    02:00 +4°C° 0 mm 3 m/s 749 mmHg 89%
    03:00 +3°C° 0 mm 3 m/s 750 mmHg 91%
    04:00 +3°C° 0 mm 3 m/s 750 mmHg 93%
    05:00 +3°C° 0 mm 3 m/s 750 mmHg 94%
    06:00 +3°C° 0 mm 3 m/s 751 mmHg 94%
    07:00 +2°C° 0 mm 3 m/s 751 mmHg 95%
    08:00 +3°C° 0 mm 3 m/s 751 mmHg 92%
    09:00 +4°C° 0 mm 4 m/s 752 mmHg 88%
    10:00 +4°C° 0 mm 4 m/s 752 mmHg 85%
    11:00 +4°C° 0 mm 4 m/s 753 mmHg 80%
    12:00 +5°C° 0 mm 4 m/s 753 mmHg 75%
    13:00 +5°C° 0 mm 4 m/s 754 mmHg 70%
    14:00 +4°C° 0 mm 4 m/s 754 mmHg 70%
    15:00 +4°C° 0 mm 4 m/s 755 mmHg 71%
    16:00 +3°C° 0 mm 4 m/s 755 mmHg 72%
    17:00 +3°C° 0 mm 3 m/s 756 mmHg 73%
    18:00 +3°C° 0 mm 3 m/s 756 mmHg 73%
    19:00 +2°C° 0 mm 3 m/s 757 mmHg 74%
    20:00 +2°C° 0 mm 3 m/s 757 mmHg 75%
    21:00 +2°C° 0 mm 2 m/s 757 mmHg 75%
    22:00 +2°C° 0 mm 2 m/s 757 mmHg 76%
    23:00 +1°C° 0 mm 2 m/s 758 mmHg 76%

    22 Octombrie, Luni

    Timp Temperatura Precipitaţii Vânt Presiune Umiditate
    00:00 +1°C° 0 mm 2 m/s 758 mmHg 76%
    01:00 +1°C° 0 mm 2 m/s 758 mmHg 76%
    02:00 +1°C° 0 mm 1 m/s 758 mmHg 76%
    03:00 +1°C° 0 mm 1 m/s 759 mmHg 77%
    04:00 +1°C° 0 mm 1 m/s 759 mmHg 77%
    05:00 +1°C° 0 mm 1 m/s 759 mmHg 78%
    06:00 +1°C° 0 mm 1 m/s 759 mmHg 79%
    07:00 0°C° 0 mm 1 m/s 760 mmHg 79%
    08:00 +1°C° 0 mm 1 m/s 760 mmHg 75%
    09:00 +2°C° 0 mm 1 m/s 760 mmHg 71%
    10:00 +3°C° 0 mm 1 m/s 760 mmHg 66%
    11:00 +3°C° 0 mm 1 m/s 760 mmHg 63%
    12:00 +4°C° 0 mm 1 m/s 760 mmHg 60%
    13:00 +5°C° 0 mm 1 m/s 760 mmHg 57%
    14:00 +4°C° 0 mm 1 m/s 760 mmHg 60%
    15:00 +4°C° 0 mm 1 m/s 760 mmHg 62%
    16:00 +3°C° 0 mm 0 m/s 759 mmHg 65%
    17:00 +3°C° 0 mm 1 m/s 759 mmHg 67%
    18:00 +2°C° 0 mm 1 m/s 759 mmHg 70%
    19:00 +2°C° 0 mm 1 m/s 760 mmHg 73%
    20:00 +1°C° 0 mm 1 m/s 759 mmHg 74%
    21:00 +1°C° 0 mm 1 m/s 759 mmHg 75%
    22:00 +1°C° 0 mm 1 m/s 759 mmHg 76%
    23:00 -1°C° 0 mm 2 m/s 759 mmHg 76%

    23 Octombrie, Marţi

    Timp Temperatura Precipitaţii Vânt Presiune Umiditate
    00:00 -1°C° 0 mm 2 m/s 759 mmHg 77%
    01:00 -1°C° 0 mm 2 m/s 759 mmHg 78%
    02:00 -1°C° 0 mm 2 m/s 758 mmHg 78%
    03:00 -1°C° 0 mm 2 m/s 758 mmHg 78%
    04:00 -1°C° 0 mm 2 m/s 758 mmHg 79%
    05:00 -1°C° 0 mm 3 m/s 758 mmHg 79%
    06:00 -1°C° 0 mm 3 m/s 758 mmHg 79%
    07:00 -1°C° 0 mm 3 m/s 758 mmHg 79%
    08:00 0°C° 0 mm 3 m/s 758 mmHg 74%
    09:00 +1°C° 0 mm 3 m/s 758 mmHg 70%
    10:00 +1°C° 0 mm 4 m/s 757 mmHg 65%
    11:00 +3°C° 0 mm 4 m/s 757 mmHg 63%
    12:00 +4°C° 0 mm 4 m/s 757 mmHg 60%
    13:00 +5°C° 0 mm 4 m/s 757 mmHg 58%
    14:00 +4°C° 0 mm 4 m/s 757 mmHg 62%
    15:00 +4°C° 0 mm 3 m/s 756 mmHg 65%
    16:00 +3°C° 0 mm 3 m/s 756 mmHg 68%
    17:00 +2°C° 0 mm 3 m/s 756 mmHg 71%
    18:00 +2°C° 0 mm 3 m/s 756 mmHg 73%
    19:00 +1°C° 0 mm 3 m/s 756 mmHg 76%
    20:00 0°C° 0 mm 3 m/s 756 mmHg 76%
    21:00 0°C° 0 mm 3 m/s 755 mmHg 76%
    22:00 0°C° 0 mm 3 m/s 755 mmHg 76%
    23:00 0°C° 0 mm 3 m/s 755 mmHg 77%

    24 Octombrie, Miercuri

    Timp Temperatura Precipitaţii Vânt Presiune Umiditate
    00:00 0°C° 0 mm 3 m/s 754 mmHg 78%
    01:00 0°C° 0 mm 3 m/s 754 mmHg 79%
    02:00 -1°C° 0 mm 4 m/s 754 mmHg 79%
    03:00 0°C° 0 mm 4 m/s 753 mmHg 78%
    04:00 0°C° 0 mm 4 m/s 753 mmHg 77%
    05:00 0°C° 0 mm 4 m/s 752 mmHg 78%
    06:00 0°C° 0 mm 5 m/s 751 mmHg 79%
    07:00 +1°C° 0 mm 5 m/s 751 mmHg 80%
    08:00 +2°C° 0 mm 6 m/s 750 mmHg 78%
    09:00 +3°C° 0 mm 6 m/s 750 mmHg 76%
    10:00 +5°C° 0 mm 7 m/s 749 mmHg 74%
    11:00 +6°C° 0 mm 7 m/s 749 mmHg 72%
    12:00 +8°C° 0 mm 7 m/s 748 mmHg 71%
    13:00 +9°C° 0 mm 7 m/s 748 mmHg 70%
    14:00 +9°C° 0 mm 7 m/s 748 mmHg 71%
    15:00 +9°C° 0 mm 6 m/s 747 mmHg 72%
    16:00 +9°C° 0 mm 6 m/s 747 mmHg 73%
    17:00 +8°C° 0.2 mm 6 m/s 746 mmHg 74%
    18:00 +8°C° 0.2 mm 7 m/s 746 mmHg 75%
    19:00 +6°C° 0.2 mm 7 m/s 746 mmHg 75%
    20:00 +6°C° 0.3 mm 7 m/s 745 mmHg 77%
    21:00 +6°C° 0.3 mm 8 m/s 745 mmHg 78%
    22:00 +6°C° 0.3 mm 8 m/s 745 mmHg 80%
    23:00 +6°C° 0.1 mm 8 m/s 744 mmHg 78%
    Arată mai mult